Flag Weather past 2 weeks in Marburg, Hesse, Germany

Now
47 °F

Scattered clouds.


Feels Like: 47 °F
Forecast: 33 / 43 °F
Wind: 2 mph from Northeast

Location: Giessen

Current Time: Nov 24, 2014 at 1:28:35 PM

Latest Report: Nov 24, 2014 at 1:00 PM


Visibility: 6 mi

Pressure: 30.27 "Hg

Humidity: 92%

Dew point: 45 °F

Location of MarburgLocation

Historic Weather in Marburg — Graph

°F

Marburg temperature yesterday

Maximum temperature yesterday: 48 °F (at 3:00 PM)
Minimum temperature yesterday: 38 °F (at 9:00 AM)
Average temperature yesterday: 42 °F

Past Weeks' High & Low Weather Summary

 TemperatureHumidityPressure
High53 °F (Nov 13, 3:00 PM)100% (Nov 9, 7:00 PM)30.35 "Hg (Nov 9, 7:00 PM)
Low31 °F (Nov 22, 7:00 AM)70% (Nov 21, 1:00 PM)29.50 "Hg (Nov 16, 4:00 AM)
Average45 °F95%29.93 "Hg
* Reported Nov 9 12:00 Noon — Nov 24 12:00 Noon, Marburg, Weather by CustomWeather, © 2014

Note: Actual official high and low records may vary slightly from our data, if they occured in-between our weather recording intervals... More about our weather records

Advertising

Marburg weather history for previous 24 hours

 ConditionsComfort  
Time TempWeatherWind HumidityBarometerVisibility
12:00 PM
Nov 24
46 °FOvercast.No wind89%30.26 "Hg6 mi
11:00 AM45 °FOvercast.No wind94%30.25 "Hg6 mi
10:00 AM44 °FLow clouds.1 mph97%30.24 "Hg6 mi
9:00 AM43 °FOvercast.1 mph96%30.22 "Hg6 mi
8:00 AM43 °FLow clouds.1 mph93%30.19 "Hg8 mi
7:00 AM44 °FLow clouds.No wind92%30.17 "Hg8 mi
6:00 AM44 °FOvercast.1 mph91%30.13 "Hg9 mi
5:00 AM44 °FOvercast.2 mph92%30.11 "Hg9 mi
4:00 AM44 °FOvercast.2 mph90%30.10 "Hg9 mi
3:00 AM44 °FOvercast.5 mph89%30.10 "Hg10 mi
2:00 AM45 °FOvercast.5 mph89%30.10 "Hg9 mi
1:00 AM45 °FOvercast.3 mph90%30.11 "Hg8 mi
12:00 AM44 °FOvercast.2 mph91%30.11 "Hg6 mi
11:00 PM
Nov 23
44 °FOvercast.2 mph92%30.10 "Hg5 mi
10:00 PM44 °FOvercast.1 mph92%30.10 "Hg6 mi
9:00 PM44 °FOvercast.1 mph92%30.11 "Hg6 mi
8:00 PM44 °FPassing clouds.1 mph93%30.11 "Hg6 mi
7:00 PM44 °FClear.1 mph93%30.11 "Hg6 mi
6:00 PM46 °FPassing clouds.2 mph89%30.11 "Hg7 mi
5:00 PM46 °FOvercast.2 mph87%30.12 "Hg7 mi
4:00 PM48 °FOvercast.2 mph83%30.13 "Hg9 mi
3:00 PM48 °FPartly sunny.3 mph80%30.14 "Hg10 mi
2:00 PM48 °FSunny.2 mph81%30.16 "Hg10 mi
1:00 PM46 °FScattered clouds.5 mph83%30.18 "Hg8 mi
Weather by CustomWeather, © 2014

See weather overviewHow to use our weather pages